WD8INF-9 Weather Reports


time (UTC)temp
C
wind
direction
speed
KPH
gust
KPH
rain 1hr
cm
rain 24hr
cm
rain mn
cm
humidity
%
barometer
mb
20260505010257 21 326 0.0 3.2 0.00 0.00 0.00 1003.3
20260505005757 21 181 0.0 9.7 0.00 0.00 0.00 1003.5
20260505005257 21 236 0.0 3.2 0.00 0.00 0.00 1003.0
20260505004756 21 252 0.0 6.4 0.00 0.00 0.00 1003.5
20260505004256 21 259 0.0 4.8 0.00 0.00 0.00 1003.1
20260505003256 22 249 1.6 4.8 0.00 0.00 0.00 1003.3
20260505002755 22 186 3.2 11.3 0.00 0.00 0.00 1003.2
20260505002255 22 264 0.0 4.8 0.00 0.00 0.00 1003.3
20260505001755 22 228 3.2 11.3 0.00 0.00 0.00 1003.4
20260505001255 22 246 1.6 9.7 0.00 0.00 0.00 1003.6
20260505000755 22 253 1.6 4.8 0.00 0.00 0.00 1003.3
20260505000254 22 255 1.6 9.7 0.00 0.00 0.00 1003.6
20260504235754 22 198 1.6 12.9 0.00 0.00 0.00 1003.7
20260504235254 23 260 3.2 11.3 0.00 0.00 0.00 1003.8
20260504234754 23 255 3.2 11.3 0.00 0.00 0.00 1003.3
20260504234253 23 186 1.6 9.7 0.00 0.00 0.00 1003.9
20260504233753 23 259 4.8 14.5 0.00 0.00 0.00 1003.8
20260504233253 23 221 3.2 16.1 0.00 0.00 0.00 1003.7
20260504232753 24 180 1.6 11.3 0.00 0.00 0.00 1003.8
20260504232252 24 217 0.0 6.4 0.00 0.00 0.00 1003.6
20260504231752 24 177 0.0 3.2 0.00 0.00 0.00 1003.6
20260504231252 25 215 1.6 9.7 0.00 0.00 0.00 1003.7
20260504230752 25 180 0.0 4.8 0.00 0.00 0.00 1003.7
20260504230251 25 215 0.0 6.4 0.00 0.00 0.00 1003.6
20260504225751 24 183 0.0 3.2 0.00 0.00 0.00 1004.0
20260504225251 24 0 0.0 0.0 0.00 0.00 0.00 1004.0
20260504224751 24 0 0.0 0.0 0.00 0.00 0.00 1004.4
20260504224251 24 239 0.0 3.2 0.00 0.00 0.00 1004.2
20260504223750 27 263 1.6 4.8 0.00 0.00 0.00 1004.1
20260504223250 28 259 1.6 4.8 0.00 0.00 0.00 1004.2
20260504222750 27 170 1.6 6.4 0.00 0.00 0.00 1004.4
20260504222250 27 245 1.6 8.0 0.00 0.00 0.00 1004.1
20260504221749 30 194 1.6 4.8 0.00 0.00 0.00 1004.5
20260504221249 26 277 1.6 4.8 0.00 0.00 0.00 1004.6
20260504220749 26 250 0.0 3.2 0.00 0.00 0.00 1004.5
20260504220249 27 177 0.0 6.4 0.00 0.00 0.00 1004.0
20260504215248 23 240 1.6 9.7 0.00 0.00 0.00 1004.6
20260504214748 24 276 1.6 4.8 0.00 0.00 0.00 1004.7
20260504214248 24 269 0.0 4.8 0.00 0.00 0.00 1005.0
20260504213748 24 253 3.2 9.7 0.00 0.00 0.00 1005.1
20260504213248 25 231 3.2 9.7 0.00 0.00 0.00 1004.9
20260504212747 26 243 3.2 9.7 0.00 0.00 0.00 1004.6
20260504212247 26 248 1.6 8.0 0.00 0.00 0.00 1005.3
20260504211747 26 242 1.6 9.7 0.00 0.00 0.00 1004.9
20260504211246 25 257 3.2 11.3 0.00 0.00 0.00 1005.4
20260504210746 24 276 3.2 11.3 0.00 0.00 0.00 1005.2
20260504210246 25 278 3.2 11.3 0.00 0.00 0.00 1005.5
20260504205746 27 207 1.6 9.7 0.00 0.00 0.00 1005.4
20260504205245 25 242 1.6 8.0 0.00 0.00 0.00 1005.5
20260504204745 25 302 0.0 4.8 0.00 0.00 0.00 1005.7
20260504204245 25 236 1.6 9.7 0.00 0.00 0.00 1005.8
20260504203745 24 263 1.6 9.7 0.00 0.00 0.00 1005.4
20260504203244 25 256 1.6 6.4 0.00 0.00 0.00 1005.6
20260504202744 28 239 3.2 8.0 0.00 0.00 0.00 1005.8
20260504202244 29 273 1.6 8.0 0.00 0.00 0.00 1005.8
20260504201744 27 245 0.0 3.2 0.00 0.00 0.00 1005.9
20260504201244 25 236 1.6 6.4 0.00 0.00 0.00 1005.7
20260504200743 23 260 1.6 6.4 0.00 0.00 0.00 1005.9
20260504200243 23 200 1.6 8.0 0.00 0.00 0.00 1005.8
20260504195743 22 191 1.6 6.4 0.00 0.00 0.00 1006.1
20260504195243 22 226 0.0 1.6 0.00 0.00 0.00 1006.3
20260504194742 21 226 0.0 4.8 0.00 0.00 0.00 1006.3
20260504194242 20 236 1.6 6.4 0.00 0.00 0.00 1006.5
20260504193742 20 236 0.0 1.6 0.00 0.00 0.00 1006.5
20260504193242 19 274 1.6 6.4 0.00 0.00 0.00 1006.5
20260504192743 19 269 0.0 4.8 0.00 0.00 0.00 1007.0
20260504192240 19 260 1.6 6.4 0.00 0.00 0.00 1007.0
20260504191239 18 240 0.0 3.2 0.00 0.00 0.00 1006.9
20260504190737 20 287 3.2 9.7 0.00 0.00 0.00 1007.1
20260504190237 20 256 1.6 6.4 0.00 0.00 0.00 1007.7
20260504185737 21 250 1.6 14.5 0.00 0.00 0.00 1007.4
20260504185237 21 250 1.6 12.9 0.00 0.00 0.00 1007.1
20260504184736 21 252 3.2 9.7 0.00 0.00 0.00 1006.9
20260504184236 21 250 4.8 14.5 0.00 0.00 0.00 1007.3
20260504183736 22 208 3.2 8.0 0.00 0.00 0.00 1006.9
20260504183236 22 274 3.2 9.7 0.00 0.00 0.00 1006.8
20260504182736 22 122 3.2 11.3 0.00 0.00 0.00 1006.4
20260504182235 22 249 4.8 14.5 0.00 0.00 0.00 1006.5
20260504181735 25 256 4.8 17.7 0.00 0.00 0.00 1006.4
20260504181235 28 218 3.2 9.7 0.00 0.00 0.00 1006.2
20260504180735 27 184 3.2 16.1 0.00 0.00 0.00 1006.1
20260504180234 26 300 3.2 8.0 0.00 0.00 0.00 1006.1
20260504175734 27 264 1.6 8.0 0.00 0.00 0.00 1006.0
20260504175234 25 219 3.2 16.1 0.00 0.00 0.00 1006.1
20260504174734 26 245 1.6 9.7 0.00 0.00 0.00 1006.4
20260504174233 27 184 1.6 11.3 0.00 0.00 0.00 1006.4
20260504173733 26 179 1.6 11.3 0.00 0.00 0.00 1006.6
20260504173233 25 226 1.6 6.4 0.00 0.00 0.00 1006.3
20260504172733 23 210 3.2 8.0 0.00 0.00 0.00 1006.3
20260504172232 23 207 1.6 9.7 0.00 0.00 0.00 1006.3
20260504171732 24 193 1.6 6.4 0.00 0.00 0.00 1006.7
20260504171232 23 198 1.6 12.9 0.00 0.00 0.00 1006.4
20260504170732 22 242 1.6 6.4 0.00 0.00 0.00 1006.5
20260504170232 22 219 1.6 4.8 0.00 0.00 0.00 1006.7
20260504160229 23 245 1.6 8.0 0.00 0.00 0.00 1007.2
20260504150725 23 225 1.6 4.8 0.00 0.00 0.00 1007.4
20260504150225 22 219 3.2 9.7 0.00 0.00 0.00 1007.4
20260504141219 21 214 3.2 16.1 0.00 0.00 0.00 1008.1
20260504140718 22 203 3.2 11.3 0.00 0.00 0.00 1008.2
20260504140218 21 149 1.6 6.4 0.00 0.00 0.00 1007.7
20260504130712 16 255 1.6 4.8 0.00 0.00 0.00 1007.9
20260504130211 15 204 1.6 6.4 0.00 0.00 0.00 1008.1
20260504120204 12 0 0.0 0.0 0.00 0.00 0.00 1007.9
20260504110656 10 142 0.0 1.6 0.00 0.00 0.00 1008.4
20260504110156 10 179 0.0 3.2 0.00 0.00 0.00 1008.2
20260504100149 9 0 0.0 0.0 0.00 0.00 0.00 1008.6
20260504081637 10 193 0.0 4.8 0.00 0.00 0.00 1008.8
20260504081136 10 226 0.0 3.2 0.00 0.00 0.00 1009.2
20260504080636 10 198 0.0 3.2 0.00 0.00 0.00 1009.1
20260504080136 10 236 0.0 1.6 0.00 0.00 0.00 1009.1
20260504060121 10 0 0.0 0.0 0.00 0.00 0.00 1010.4
20260504050613 11 0 0.0 0.0 0.00 0.00 0.00 1010.6
20260504050113 11 270 0.0 4.8 0.00 0.00 0.00 1010.8
20260504045612 11 201 0.0 1.6 0.00 0.00 0.00 1010.6
20260504045112 11 214 0.0 6.4 0.00 0.00 0.00 1010.3
20260504044611 11 0 0.0 0.0 0.00 0.00 0.00 1010.6
20260504044111 11 0 0.0 0.0 0.00 0.00 0.00 1010.6
20260504043611 11 0 0.0 0.0 0.00 0.00 0.00 1010.6
20260504043111 12 218 0.0 4.8 0.00 0.00 0.00 1010.6
20260504042611 12 243 0.0 3.2 0.00 0.00 0.00 1011.0
20260504042110 12 193 0.0 3.2 0.00 0.00 0.00 1011.2
20260504041610 12 222 0.0 4.8 0.00 0.00 0.00 1011.2
20260504041110 12 243 0.0 4.8 0.00 0.00 0.00 1011.0
20260504040610 12 232 0.0 4.8 0.00 0.00 0.00 1011.3
20260504040109 12 205 0.0 3.2 0.00 0.00 0.00 1011.2
20260504035609 12 215 0.0 3.2 0.00 0.00 0.00 1011.3
20260504035109 12 107 0.0 1.6 0.00 0.00 0.00 1011.2
20260504034607 12 166 0.0 4.8 0.00 0.00 0.00 1011.3
20260504034105 12 256 0.0 4.8 0.00 0.00 0.00 1010.9
20260504033605 13 0 0.0 0.0 0.00 0.00 0.00 1011.2
20260504033105 13 0 0.0 0.0 0.00 0.00 0.00 1011.3
20260504032604 13 200 0.0 4.8 0.00 0.00 0.00 1011.2
20260504032104 13 218 0.0 1.6 0.00 0.00 0.00 1011.4
20260504031604 13 0 0.0 0.0 0.00 0.00 0.00 1011.5
20260504031104 13 172 0.0 1.6 0.00 0.00 0.00 1011.5
20260504030603 13 0 0.0 0.0 0.00 0.00 0.00 1011.4
20260504025559 13 270 0.0 3.2 0.00 0.00 0.00 1011.6
20260504025058 13 197 0.0 3.2 0.00 0.00 0.00 1011.8
20260504024558 13 181 0.0 3.2 0.00 0.00 0.00 1011.8
20260504024058 13 0 0.0 0.0 0.00 0.00 0.00 1011.9
20260504023557 13 211 0.0 1.6 0.00 0.00 0.00 1011.6
20260504023055 13 181 0.0 1.6 0.00 0.00 0.00 1011.9
20260504022554 13 0 0.0 0.0 0.00 0.00 0.00 1011.5
20260504022054 13 269 0.0 3.2 0.00 0.00 0.00 1011.6
20260504021553 13 267 0.0 1.6 0.00 0.00 0.00 1011.6
20260504021053 13 193 1.6 6.4 0.00 0.00 0.00 1011.6
20260504020553 13 0 0.0 0.0 0.00 0.00 0.00 1011.5
20260504020052 13 208 0.0 1.6 0.00 0.00 0.00 1011.7
20260504015552 13 187 0.0 6.4 0.00 0.00 0.00 1011.5
20260504015052 13 194 0.0 8.0 0.00 0.00 0.00 1011.4
20260504014550 13 203 0.0 1.6 0.00 0.00 0.00 1011.6
20260504014050 13 221 0.0 1.6 0.00 0.00 0.00 1011.2
20260504013550 13 219 0.0 3.2 0.00 0.00 0.00 1011.5
20260504012548 13 233 0.0 1.6 0.00 0.00 0.00 1011.5
20260504012048 13 232 0.0 1.6 0.00 0.00 0.00 1010.9
20260504011547 13 0 0.0 0.0 0.00 0.00 0.00 1011.3
20260504011047 13 204 0.0 3.2 0.00 0.00 0.00 1011.3